Location: Ferchesar
(52.6477°N, 12.4298°E)
Time: 08:00:47
(UTC+01:00)

Vanguard 1 - Pass Details

Date: 15 December 2021
Orbit: 652 x 3830 km, 34.2° (Epoch: 16 January)

Event Time Altitude Azimuth Distance (km) Brightness Sun altitude
Exits shadow 03:27:33 26° 193° (SSW) 5,373 13.5 -41.9°
Drops below altitude 10° 03:37:20 10° 165° (SSE) 6,078 14.0 -40.5°
Sets 03:42:20 0° 155° (SSE) 6,697 14.4 -39.8°
